Weather History for KLRJ - March, 2013

Change the Weather History Date:

Monday, March 25, 2013

  Actual Average Record
Temperature  
Mean Temperature 26 °F -  
Max Temperature 30 °F 51 °F 73 °F (2004)
Min Temperature 23 °F 29 °F 10 °F (1975)
Degree Days  
Heating Degree Days 38    
Moisture  
Dew Point 20 °F    
Average Humidity 76    
Maximum Humidity 86    
Minimum Humidity 64    
Precipitation  
Precipitation 0.00 in - - ()
Sea Level Pressure  
Sea Level Pressure 30.20 in    
Wind  
Wind Speed 14 mph (NNW)    
Max Wind Speed 18 mph    
Max Gust Speed 25 mph    
Visibility 8 miles    
Events Snow    
Averages and records for this station are not official NWS values.
T = Trace of Precipitation, MM = Missing Value Source: NWS Daily Summary

Daily Weather History Graph

Daily Weather History Graph

Search for Another Location

Airport or City:

Trip Planner

Search our weather history database for the weather conditions in past years. The results will help you decide how hot, cold, wet, or windy it might be!

Date:

Astronomy

Mar. 25, 2013 Rise Set
Actual Time 7:18 AM CDT 7:43 PM CDT
Civil Twilight 6:50 AM CDT 8:11 PM CDT
Nautical Twilight 6:17 AM CDT 8:44 PM CDT
Astronomical Twilight 5:42 AM CDT 9:19 PM CDT
Moon 6:14 PM CDT (3/25) 6:04 AM CDT (3/25)
Length of Visible Light 13h 21m
Length of Day
12h 24m
Waxing Gibbous, 96% of the Moon is Illuminated
Mar 25
Waxing Gibbous
Mar 27
Full
Apr 2
Last Quarter
Apr 10
New
Apr 18
First Quarter

Hourly Weather History & Observations

Time (CDT) Temp. Windchill Dew Point Humidity Pressure Visibility Wind Dir Wind Speed Gust Speed Precip Events Conditions
12:15 AM 24.8 °F 11.9 °F 21.2 °F 86% 30.10 in 4.0 mi North 16.1 mph 23.0 mph N/A Snow Light Snow
12:35 AM 24.8 °F 11.9 °F 21.2 °F 86% 30.10 in 4.0 mi North 16.1 mph 23.0 mph N/A Snow Light Snow
12:55 AM 24.8 °F 11.5 °F 21.2 °F 86% 30.10 in 4.0 mi North 17.3 mph 23.0 mph N/A Snow Light Snow
1:15 AM 24.8 °F 12.9 °F 21.2 °F 86% 30.10 in 4.0 mi North 13.8 mph 23.0 mph N/A Snow Light Snow
1:35 AM 24.8 °F 13.4 °F 19.4 °F 80% 30.10 in 10.0 mi North 12.7 mph 19.6 mph N/A Snow Light Snow
1:55 AM 24.8 °F 12.4 °F 19.4 °F 80% 30.10 in 10.0 mi NNW 15.0 mph 21.9 mph N/A   Overcast
2:15 AM 24.8 °F 12.4 °F 19.4 °F 80% 30.10 in 10.0 mi North 15.0 mph 20.7 mph N/A   Overcast
2:35 AM 24.8 °F 12.9 °F 19.4 °F 80% 30.10 in 10.0 mi NNW 13.8 mph 18.4 mph N/A   Scattered Clouds
2:55 AM 24.8 °F 14.6 °F 19.4 °F 80% 30.11 in 10.0 mi NNW 10.4 mph 17.3 mph N/A   Clear
3:15 AM 24.8 °F 13.4 °F 17.6 °F 74% 30.11 in 10.0 mi NNW 12.7 mph - N/A   Mostly Cloudy
3:35 AM 24.8 °F 13.4 °F 19.4 °F 80% 30.11 in 10.0 mi NNW 12.7 mph - N/A   Scattered Clouds
3:55 AM 23.0 °F 11.1 °F 19.4 °F 86% 30.11 in 10.0 mi NNW 12.7 mph - N/A   Mostly Cloudy
4:15 AM 23.0 °F 12.4 °F 19.4 °F 86% 30.11 in 10.0 mi NW 10.4 mph - N/A   Mostly Cloudy
4:35 AM 23.0 °F 11.7 °F 19.4 °F 86% 30.11 in 4.0 mi NNW 11.5 mph 16.1 mph N/A Snow Light Snow
4:55 AM 23.0 °F 11.1 °F 19.4 °F 86% 30.11 in 4.0 mi NNW 12.7 mph 18.4 mph N/A Snow Light Snow
5:15 AM 23.0 °F 12.4 °F 19.4 °F 86% 30.11 in 2.5 mi NNW 10.4 mph 16.1 mph N/A Snow Light Snow
5:35 AM 23.0 °F 13.1 °F 19.4 °F 86% 30.12 in 2.0 mi NNW 9.2 mph - N/A Snow Light Snow
5:55 AM 23.0 °F 12.4 °F 19.4 °F 86% 30.12 in 3.0 mi NNW 10.4 mph - N/A Snow Light Snow
6:15 AM 23.0 °F 12.4 °F 19.4 °F 86% 30.13 in 2.0 mi NNW 10.4 mph - N/A Snow Light Snow
6:35 AM 23.0 °F 11.1 °F 19.4 °F 86% 30.13 in 3.0 mi NNW 12.7 mph - N/A Snow Light Snow
6:55 AM 23.0 °F 11.1 °F 19.4 °F 86% 30.13 in 3.0 mi NNW 12.7 mph - N/A Snow Light Snow
7:15 AM 23.0 °F 10.6 °F 19.4 °F 86% 30.14 in 3.0 mi NNW 13.8 mph 18.4 mph N/A Snow Light Snow
7:35 AM 24.8 °F 12.4 °F 19.4 °F 80% 30.14 in 4.0 mi NNW 15.0 mph - N/A Snow Light Snow
7:55 AM 24.8 °F 13.4 °F 19.4 °F 80% 30.15 in 4.0 mi North 12.7 mph 20.7 mph N/A Snow Light Snow
8:15 AM 24.8 °F 12.4 °F 19.4 °F 80% 30.16 in 10.0 mi NNW 15.0 mph 19.6 mph N/A Snow Light Snow
8:35 AM 24.8 °F 12.4 °F 19.4 °F 80% 30.17 in 10.0 mi NNW 15.0 mph 21.9 mph N/A Snow Light Snow
8:55 AM 24.8 °F 12.4 °F 19.4 °F 80% 30.18 in 5.0 mi NNW 15.0 mph - N/A Snow Light Snow
9:15 AM 24.8 °F 14.0 °F 21.2 °F 86% 30.18 in 5.0 mi North 11.5 mph - N/A Snow Light Snow
9:35 AM 24.8 °F 13.4 °F 19.4 °F 80% 30.19 in 7.0 mi North 12.7 mph 18.4 mph N/A Snow Light Snow
9:55 AM 26.6 °F 13.8 °F 19.4 °F 74% 30.20 in 3.0 mi North 17.3 mph 20.7 mph N/A Snow Light Snow
10:15 AM 26.6 °F 15.2 °F 21.2 °F 80% 30.21 in 10.0 mi North 13.8 mph - N/A Snow Light Snow
10:35 AM 26.6 °F 15.2 °F 21.2 °F 80% 30.21 in 10.0 mi North 13.8 mph 21.9 mph N/A Snow Light Snow
10:55 AM 26.6 °F 15.7 °F 19.4 °F 74% 30.22 in 10.0 mi North 12.7 mph 19.6 mph N/A Snow Light Snow
11:15 AM 28.4 °F 18.5 °F 21.2 °F 74% 30.22 in 10.0 mi North 11.5 mph 21.9 mph N/A   Overcast
11:35 AM 28.4 °F 16.2 °F 19.4 °F 69% 30.22 in 10.0 mi North 17.3 mph 24.2 mph N/A   Overcast
11:55 AM 28.4 °F 15.8 °F 21.2 °F 74% 30.22 in 10.0 mi North 18.4 mph 25.3 mph N/A   Overcast
12:15 PM 28.4 °F 16.2 °F 21.2 °F 74% 30.23 in 10.0 mi North 17.3 mph 24.2 mph N/A   Overcast
12:35 PM 28.4 °F 16.2 °F 21.2 °F 74% 30.23 in 10.0 mi NNW 17.3 mph 23.0 mph N/A Snow Light Snow
12:55 PM 28.4 °F 16.6 °F 21.2 °F 74% 30.23 in 7.0 mi North 16.1 mph 21.9 mph N/A Snow Light Snow
1:15 PM 28.4 °F 17.0 °F 21.2 °F 74% 30.23 in 10.0 mi North 15.0 mph 20.7 mph N/A Snow Light Snow
1:35 PM 28.4 °F 17.0 °F 19.4 °F 69% 30.23 in 10.0 mi North 15.0 mph 20.7 mph N/A   Overcast
1:55 PM 28.4 °F 16.6 °F 19.4 °F 69% 30.23 in 10.0 mi North 16.1 mph 23.0 mph N/A   Overcast
2:15 PM 30.2 °F 19.3 °F 19.4 °F 64% 30.23 in 10.0 mi North 15.0 mph 20.7 mph N/A   Overcast
2:35 PM 28.4 °F 16.6 °F 17.6 °F 64% 30.23 in 10.0 mi North 16.1 mph - N/A   Overcast
2:55 PM 28.4 °F 18.0 °F 19.4 °F 69% 30.23 in 10.0 mi North 12.7 mph 17.3 mph N/A   Overcast
3:15 PM 28.4 °F 16.6 °F 19.4 °F 69% 30.23 in 10.0 mi North 16.1 mph 20.7 mph N/A   Overcast
3:35 PM 30.2 °F 18.9 °F 19.4 °F 64% 30.23 in 10.0 mi NNW 16.1 mph 19.6 mph N/A   Overcast
3:55 PM 30.2 °F 19.8 °F 19.4 °F 64% 30.23 in 10.0 mi NNW 13.8 mph 19.6 mph N/A   Overcast
4:15 PM 30.2 °F 19.8 °F 19.4 °F 64% 30.24 in 10.0 mi NNW 13.8 mph 19.6 mph N/A   Overcast
4:35 PM 30.2 °F 20.8 °F 19.4 °F 64% 30.24 in 10.0 mi NNW 11.5 mph - N/A   Overcast
4:55 PM 30.2 °F 20.2 °F 19.4 °F 64% 30.24 in 10.0 mi NNW 12.7 mph 19.6 mph N/A   Overcast
5:15 PM 30.2 °F 20.8 °F 19.4 °F 64% 30.25 in 10.0 mi NNW 11.5 mph - N/A   Overcast
5:35 PM 30.2 °F 19.8 °F 19.4 °F 64% 30.25 in 10.0 mi NNW 13.8 mph 20.7 mph N/A   Overcast
5:55 PM 28.4 °F 18.0 °F 19.4 °F 69% 30.25 in 10.0 mi NNW 12.7 mph - N/A   Overcast
6:15 PM 28.4 °F 18.5 °F 19.4 °F 69% 30.25 in 10.0 mi North 11.5 mph 17.3 mph N/A   Overcast
6:35 PM 28.4 °F 17.5 °F 19.4 °F 69% 30.26 in 10.0 mi NNW 13.8 mph - N/A   Overcast
6:55 PM 28.4 °F 18.0 °F 19.4 °F 69% 30.27 in 10.0 mi NNW 12.7 mph 18.4 mph N/A   Overcast
7:15 PM 28.4 °F 19.1 °F 19.4 °F 69% 30.27 in 10.0 mi NNW 10.4 mph 18.4 mph N/A   Overcast
7:35 PM 28.4 °F 17.5 °F 19.4 °F 69% 30.28 in 10.0 mi NNW 13.8 mph - N/A   Overcast
7:55 PM 28.4 °F 19.1 °F 19.4 °F 69% 30.28 in 10.0 mi NNW 10.4 mph 16.1 mph N/A   Overcast
8:15 PM 28.4 °F 19.7 °F 19.4 °F 69% 30.29 in 10.0 mi NNW 9.2 mph - N/A   Overcast
8:35 PM 28.4 °F 20.4 °F 19.4 °F 69% 30.29 in 10.0 mi NNW 8.1 mph - N/A   Overcast
8:55 PM 28.4 °F 21.2 °F 21.2 °F 74% 30.29 in 10.0 mi NNW 6.9 mph - N/A   Overcast
9:15 PM 26.6 °F 17.5 °F 19.4 °F 74% 30.30 in 10.0 mi NNW 9.2 mph - N/A   Overcast
9:35 PM 26.6 °F 19.1 °F 19.4 °F 74% 30.30 in 10.0 mi North 6.9 mph - N/A   Overcast
9:55 PM 26.6 °F 16.8 °F 19.4 °F 74% 30.31 in 10.0 mi North 10.4 mph - N/A   Overcast
10:15 PM 26.6 °F 19.1 °F 19.4 °F 74% 30.31 in 10.0 mi NNW 6.9 mph - N/A   Overcast
10:35 PM 26.6 °F 16.8 °F 19.4 °F 74% 30.31 in 10.0 mi North 10.4 mph - N/A   Overcast
10:55 PM 26.6 °F 18.2 °F 19.4 °F 74% 30.32 in 10.0 mi NNW 8.1 mph - N/A   Overcast
11:15 PM 24.8 °F 15.3 °F 19.4 °F 80% 30.32 in 10.0 mi NNW 9.2 mph - N/A   Overcast
11:35 PM 24.8 °F 16.9 °F 19.4 °F 80% 30.32 in 10.0 mi NNW 6.9 mph - N/A   Overcast
11:55 PM 24.8 °F 16.9 °F 19.4 °F 80% 30.33 in 10.0 mi NNW 6.9 mph - N/A   Overcast